Showing default

TPA-1, 64533

Orbit data source: Space-Track

TPA-1, 64533 is a New Zealander payload satellite in SSO that was launched on Mon, 23 Jun 2025 UTC via an FALCON 9 launch vehicle from the Air Force Western Test Range (AFWTR). Payload-class satellites include a variety of spacecraft equipped with specific instruments for various scientific and technological missions. These include communications satellites like Starlink; space stations such as the ISS; scientific satellites like the Hubble; Earth observation satellites from companies like Planet Labs, Umbra, and HawkEye 360; GPS; miniature CubeSats for education and research; and military/defense satellites.

Loading next visibility...
Identifier
64533, 2025-135F
Orbit
SSO
Country
Flag of NZNZ
Related business
Manufacturer
NANAV/TPA
Mission
Operational Amateur Technology
Bus & Motor
CUBESAT 3U, Unknown motor
Mass
5 kg wet, 5 kg dry
Launch date (UTC)
2025-06-23 (11 months ago)
Launch vehicle
FALCON 9
Launch site
Air Force Western Test Range (AFWTR)
Object type
Payload
Rocket body
Debris
Shape & HBR
Box, 1.5 m
Radar Cross Section
0.035 m², Small (<0.1 m²)

Expand to show TLE details & history
Last TLE update: 16 hours ago

TLE from 16 hours ago
0 TPA-1
1 64533U 25135F   26132.88365606  .00002194  00000-0  10157-3 0  9996
2 64533  97.4645 248.1157 0004106 327.8717  32.2268 15.21177671 49488
Epoch: 2026-05-12T21:12Z
TLE epoch observation values (Epoch: 2026-05-12T21:12:27.883Z)
Latitude
-0.00001°
Longitude
59.34788°
Altitude
502.987 km
Speed
7.614 km/s
True Right ascension
16h 32m 27s
True Declination
0° 00' 00"
Sunlit
Object was in full shadow at epoch
Visualization orbit readout
Latitude
Unknown
Longitude
Unknown
Altitude
Unknown
Speed
Unknown
Apparent Right ascension
Unknown
Apparent Declination
Unknown
Sunlit
N/A
Visualization observer readout
Local Sidereal Time
22:06:18
Azimuth
Unknown
Elevation
Unknown
Doppler factor
Unknown
Orbital elements
Apogee altitude
502.078 km
Perigee altitude
496.43 km
Semi-major axis
6,877.391 km
Eccentricity
0.00041
Inclination
97.4645°
RAAN
248.1157°
Arg. of periapsis
327.8717°
True anomaly
32.2519°
Mean anomaly
32.2268°
Eccentric anomaly
32.23935°
Mean motion
3.80546 °/min
Orbital period
94.6 mins
BSTAR
0.00010157
Loading maneuver chart data...
Computing Atmospheric mass density...
Loading historical data...
Loading historical data...
Loading historical data...
Loading historical data...
Loading historical data...
Loading historical data...
Loading historical data...

Documentation

Showing up to 5 results
|